CAPE
18 17 16 8 12 12 0 0 0 0 0 0 8 9 3 0 1 0 0 0 0 1 0 0 0 0 3 1 26 13 0 13 0 0 0 0 1 0 0 0 0 0 0 0
19 31 10 11 16 21 0 0 0 0 2 0 0 0 0 0 0 0 0 0 0 0 0 0 0 0 0 0 0 0 2 10 3 2 0 0 5 7 5 0 0 0 0 0
27 41 42 17 15 27 0 0 0 0 0 0 0 0 0 0 0 8 0 0 0 0 0 0 0 0 0 0 0 0 33 3 1 0 0 0 0 0 3 7 7 0 0 1
31 43 46 42 19 25 0 0 3 12 0 0 0 0 0 0 0 0 0 2 0 0 0 0 0 0 0 0 0 0 0 0 5 0 2 11 2 5 7 9 0 4 0 0
39 36 49 72 68 24 0 0 1 0 0 0 0 0 0 0 0 0 0 0 0 0 0 0 0 0 0 0 0 0 0 0 3 0 0 0 3 0 0 1 0 3 1 0
40 29 50 52 62 23 0 0 0 6 0 0 0 0 0 0 0 0 0 0 0 0 0 0 0 0 0 0 0 0 0 0 0 0 0 0 3 0 0 0 1 0 0 0
18 33 45 52 59 71 9 0 3 3 0 0 0 0 0 0 0 0 0 0 0 0 0 0 0 0 0 0 0 0 0 0 0 0 0 7 0 0 0 0 1 0 0 0
17 12 21 35 66 63 10 7 6 2 0 0 0 0 0 0 0 0 0 0 0 0 0 0 0 0 0 0 0 0 0 0 0 0 0 0 0 0 0 2 0 2 3 0
27 19 22 34 48 38 10 1 5 2 0 0 0 0 0 0 0 0 0 0 0 0 0 0 0 0 0 0 0 0 0 0 0 0 0 0 0 0 0 0 0 0 0 1
29 25 27 23 42 37 13 7 11 16 2 0 0 0 0 0 0 0 0 0 0 0 0 0 0 0 0 0 0 0 0 0 0 0 0 0 0 0 0 0 0 0 1 0
23 31 23 21 24 26 4 1 4 0 1 0 0 0 0 0 0 0 0 0 0 0 0 0 0 0 0 0 0 0 0 0 0 0 0 0 0 0 0 0 0 0 0 0
29 27 21 19 18 13 0 1 1 6 2 0 0 3 0 0 0 0 0 0 0 0 0 0 0 0 0 0 0 0 0 0 0 0 0 0 0 0 0 0 0 0 0 0
24 21 28 24 26 17 3 0 2 1 0 0 0 0 0 0 0 0 0 0 0 0 0 0 0 0 0 0 0 0 0 0 0 0 0 0 0 0 0 0 0 0 0 0
16 19 16 16 14 22 0 0 9 0 0 0 0 0 0 0 0 0 0 0 0 0 1 1 0 0 0 0 0 0 0 0 0 0 0 0 0 0 0 0 0 0 0 0
9 8 7 7 13 37 1 2 0 13 0 0 0 0 0 0 0 0 0 0 0 0 0 0 0 0 0 0 0 0 0 0 0 0 0 0 0 0 0 0 0 0 0 0
3 1 4 0 0 0 0 1 0 2 0 0 0 0 0 0 0 0 0 0 0 0 0 0 0 0 0 0 0 0 0 0 0 0 0 0 0 0 0 0 0 0 0 0
0 0 1 0 0 0 0 0 0 13 0 0 0 0 0 0 0 3 0 0 0 0 0 0 0 0 0 0 0 0 0 0 0 0 0 0 0 0 0 0 0 0 0 0
0 0 2 0 8 1 0 0 6 0 0 0 0 0 0 0 0 0 0 0 0 0 0 0 0 0 0 0 0 0 0 0 0 0 0 0 0 0 0 0 0 0 0 0
0 0 0 0 0 0 0 0 2 0 0 0 0 0 0 0 0 0 0 0 0 0 0 0 0 0 0 0 0 0 0 0 0 0 0 0 0 0 0 0 0 0 0 0
0 0 0 0 0 0 0 0 0 0 0 0 0 0 0 0 0 0 0 0 0 0 0 0 0 0 0 0 0 0 0 0 0 0 0 0 0 0 0 0 0 0 0 0
0 0 0 0 0 0 0 0 0 0 0 0 0 0 0 0 0 0 0 0 0 0 0 0 0 0 0 0 0 0 0 0 0 0 0 0 0 0 0 0 0 0 0 0
0 0 0 0 0 0 0 0 0 0 0 0 0 0 0 0 0 0 0 0 0 0 0 0 0 0 0 0 0 0 0 0 0 0 0 0 0 0 0 0 0 0 0 0
0 0 0 0 0 0 0 0 0 0 0 0 0 0 0 0 0 0 0 0 0 0 0 0 0 0 0 0 0 0 0 0 0 0 0 0 0 0 0 0 0 0 0 0
0 0 0 0 0 0 0 0 0 0 0 0 0 0 0 0 0 0 0 0 0 0 0 0 0 0 0 0 0 0 0 0 0 0 0 0 0 0 0 0 0 0 0 0
0 0 0 0 0 0 0 0 0 0 0 0 0 0 0 0 0 0 0 0 0 0 0 0 0 0 0 0 0 0 0 0 0 0 0 0 0 0 0 0 0 0 0 0
0 0 0 0 0 0 0 0 0 0 0 0 0 0 0 0 0 0 0 0 0 0 0 0 0 0 0 0 0 0 0 0 0 0 0 0 0 0 0 0 0 0 0 0
0 0 0 0 0 0 0 0 0 0 0 0 0 0 0 0 0 0 0 0 0 0 0 0 0 0 0 0 0 0 0 0 0 0 0 0 0 0 0 0 0 0 0 0
CIN
0 -1 -1 0 -1 0 0 0 0 0 0 0 -3 0 -1 0 0 0 0 0 0 -3 0 0 0 0 -1 -1 -27 -17 -2 -14 0 0 0 -30 -45 0 0 0 0 0 0 0
-2 0 -3 -3 -1 -1 -1 0 0 0 -9 0 0 0 0 0 0 0 0 0 0 0 0 -10 -6 0 0 0 0 0 -4 -10 0 -5 -1 0 -10 -13 -21 -4 0 0 0 0
-2 0 0 -1 -4 -2 -3 0 0 0 0 -1 0 0 0 0 0 -4 0 0 0 0 0 0 0 0 0 0 0 0 -4 -11 -5 0 0 0 -9 -2 -15 -27 -8 0 0 -2
-1 0 0 -1 -1 -1 -3 0 -4 -8 0 0 0 0 0 0 0 0 0 -1 0 0 0 0 0 0 0 0 0 0 0 0 -20 -6 -17 -37 -42 -34 -14 -5 -1 -6 0 0
0 0 0 0 0 -1 0 0 -2 0 0 0 0 0 0 0 0 0 0 0 0 0 0 0 0 0 0 0 0 0 0 0 -11 -1 0 0 -41 0 0 0 0 0 -1 0
-1 0 0 -1 0 -1 -1 0 0 -2 0 0 0 0 -20 0 0 0 0 0 0 0 0 0 0 0 0 0 0 0 0 0 0 0 0 0 -20 0 0 0 0 0 0 0
-1 -1 -1 0 0 0 -9 0 -11 -1 0 0 0 0 -16 0 0 0 0 0 0 0 0 0 0 0 0 0 0 0 0 0 0 0 0 -7 0 0 0 0 0 0 0 0
0 -1 -3 -2 0 0 -14 -21 -11 -2 0 0 0 0 -12 0 0 0 0 0 0 0 0 0 0 0 0 0 0 0 0 0 0 0 0 0 0 0 0 0 0 0 0 0
-1 -1 0 0 0 0 -5 -13 -22 -3 0 0 0 0 0 0 0 0 0 0 0 0 0 0 0 0 0 0 0 0 0 0 0 0 0 0 0 0 0 0 0 0 0 0
-1 -1 -1 -1 -1 0 -5 -8 -12 -6 -1 0 0 0 0 0 0 0 0 0 0 0 0 0 0 0 -3 0 0 0 0 0 0 0 -1 0 0 0 0 0 0 0 0 0
0 -1 0 0 -3 -2 -25 -3 -4 -2 -1 0 0 0 0 0 0 0 0 0 0 0 0 0 0 0 0 -4 0 0 0 0 0 0 0 0 0 0 0 0 0 0 0 0
-1 0 0 0 -2 -5 0 0 -15 -3 -1 -2 0 -7 -1 0 0 0 0 0 0 0 0 0 0 0 0 0 0 0 0 0 0 0 0 0 0 0 0 0 0 0 0 0
-1 -1 -1 -1 -1 -1 -8 0 -5 -5 0 0 0 0 0 0 0 0 0 0 0 -13 0 0 0 0 0 0 0 0 0 0 0 0 0 0 0 0 0 0 0 0 0 0
-1 -1 -1 -1 -2 -5 -1 0 -3 0 0 0 0 0 0 0 0 0 0 0 0 0 -1 0 0 -3 0 0 0 0 0 0 0 0 0 0 0 0 0 0 0 0 0 0
-1 -1 -1 0 0 -1 -11 -1 0 -2 0 0 0 0 0 0 0 0 0 0 0 0 0 0 0 0 0 0 0 0 0 0 0 0 0 0 0 0 0 0 0 0 0 0
0 0 -2 0 0 0 0 0 0 0 0 0 0 0 0 0 0 0 0 0 0 0 0 0 0 0 0 0 0 0 0 0 0 0 0 0 0 0 0 0 0 0 0 0
0 0 -1 0 0 0 0 0 0 -2 0 0 0 0 0 0 0 -5 0 0 0 0 0 0 0 0 0 0 0 0 0 0 0 0 0 0 0 0 0 0 0 0 0 0
0 0 -8 0 0 -1 0 0 -1 0 0 0 0 0 0 0 0 0 0 0 0 0 0 0 0 0 0 0 0 0 0 0 0 0 0 0 0 0 0 0 0 0 0 0
0 0 0 0 0 0 0 0 -7 0 0 0 0 0 0 0 0 0 0 0 0 0 0 0 0 0 0 0 0 0 0 0 0 0 0 0 0 0 0 0 0 0 0 0
0 0 0 0 0 0 0 0 0 0 0 0 0 0 0 0 0 0 0 0 0 0 0 0 0 0 0 0 0 0 0 0 0 0 0 0 0 0 0 0 0 0 0 0
0 0 0 0 0 0 0 0 0 0 0 0 0 0 0 0 0 0 0 0 0 0 0 0 0 0 0 0 0 0 0 0 0 0 0 0 0 0 0 0 0 0 0 0
0 0 0 0 0 0 0 0 0 0 0 0 0 0 0 0 0 0 0 0 0 0 0 0 0 0 0 0 0 0 0 0 0 0 0 0 0 0 0 0 0 0 0 0
0 0 0 0 0 0 0 0 0 0 0 0 0 0 0 0 0 0 0 0 0 0 0 0 0 0 0 0 0 0 0 0 0 0 0 0 0 0 0 0 0 0 0 0
0 0 0 0 0 0 0 0 0 0 0 0 0 0 0 0 0 0 0 0 0 0 0 0 0 0 0 0 0 0 0 0 0 0 0 0 0 0 0 0 0 0 0 0
0 0 0 0 0 0 0 0 0 0 0 0 0 0 0 0 0 0 0 0 0 0 0 0 0 0 0 0 0 0 0 0 0 0 0 0 0 0 0 0 0 0 0 0
0 0 0 0 0 0 0 0 0 0 0 0 0 0 0 0 0 0 0 0 0 0 0 0 0 0 0 0 0 0 0 0 0 0 0 0 0 0 0 0 0 0 0 0
0 0 0 0 0 0 0 0 0 0 0 0 0 0 0 0 0 0 0 0 0 0 0 0 0 0 0 0 0 0 0 0 0 0 0 0 0 0 0 0 0 0 0 0
Wind_Speed
37 37 39 41 42 44 41 36 39 27 32 29 27 34 35 35 37 38 36 36 40 41 40 44 42 38 33 28 27 28 28 30 37 35 28 27 28 28 25 30 30 31 35 35
38 37 38 40 41 41 40 40 33 30 23 34 34 35 35 32 35 33 34 36 36 38 38 42 41 43 35 36 37 30 27 33 41 40 34 32 34 31 29 31 29 33 36 34
37 37 38 39 39 39 37 34 38 31 27 27 31 36 34 38 33 30 32 32 32 38 38 38 38 41 35 37 34 37 37 41 41 46 39 30 36 35 34 35 40 38 39 29
37 37 37 37 37 37 32 30 31 30 35 36 38 35 35 37 32 29 30 29 32 35 38 40 36 35 40 37 32 34 34 40 42 47 43 38 35 37 37 40 41 39 39 39
37 37 36 35 35 34 28 30 30 28 34 31 34 32 34 33 31 31 31 35 34 34 37 37 44 40 36 39 36 36 35 43 40 48 47 45 49 44 41 40 39 40 42 47
38 38 36 34 32 28 26 24 25 26 29 29 30 28 28 28 26 24 28 31 34 34 30 34 39 39 39 40 42 42 39 38 43 51 46 47 54 52 50 48 39 37 44 36
38 38 37 35 31 26 21 22 24 25 30 25 27 30 30 26 26 28 28 28 30 29 33 37 36 38 39 39 40 35 41 42 39 43 41 52 39 32 29 29 30 32 35 38
37 37 37 38 35 28 22 21 21 21 27 23 25 27 26 24 25 25 26 28 26 33 33 32 32 30 29 33 37 35 32 32 34 40 43 35 28 26 30 33 33 30 35 37
37 36 36 36 33 29 24 21 17 17 23 21 19 22 21 22 24 24 22 28 30 32 27 26 27 28 29 26 29 21 34 33 34 37 43 47 34 34 31 29 38 32 33 36
37 36 34 34 31 29 27 20 14 14 17 16 15 15 17 19 20 22 25 29 30 27 24 24 22 23 22 22 23 27 29 26 37 43 43 35 36 36 32 42 40 37 35 35
35 35 34 33 31 26 24 19 17 15 16 24 18 18 17 18 20 22 24 27 24 26 23 21 22 19 21 20 20 20 20 26 29 29 31 39 32 27 30 32 32 34 34 34
34 33 32 31 29 22 23 19 18 18 15 19 19 16 18 17 17 20 22 22 25 22 21 20 20 21 20 21 20 20 20 20 23 24 25 22 22 20 25 27 30 32 34 35
31 29 28 30 27 17 19 17 18 18 17 18 17 17 17 20 20 19 22 21 21 20 22 19 18 19 21 20 19 18 21 21 20 20 22 25 22 25 27 28 29 32 33 34
28 26 26 26 23 18 18 17 19 17 16 17 18 17 20 20 21 20 19 21 20 20 20 18 17 18 18 17 16 17 21 22 23 21 24 21 24 28 29 30 29 31 31 32
25 25 25 25 21 17 16 18 18 19 16 15 18 19 19 19 20 21 22 22 21 20 19 17 16 16 16 15 16 20 22 22 21 22 25 25 27 29 29 29 30 30 30 31
23 22 24 26 25 20 18 17 18 20 20 15 17 17 17 20 19 20 22 22 20 18 16 15 15 17 16 17 18 22 22 22 21 23 27 24 26 26 28 27 28 28 28 29
21 20 21 24 25 25 22 17 11 11 16 15 15 17 17 24 19 19 20 20 19 16 15 15 16 18 16 17 18 23 23 24 20 24 24 22 25 26 27 26 27 26 26 27
20 18 17 17 19 19 19 20 21 16 14 15 15 12 15 24 20 21 18 19 18 18 15 15 16 17 17 18 21 22 23 22 21 25 23 23 25 25 25 25 26 25 25 26
17 16 15 17 19 18 16 12 15 18 17 15 16 16 13 19 14 16 16 18 18 16 16 16 16 18 19 22 23 22 22 22 24 25 23 23 24 25 25 24 24 24 24 24
17 17 17 18 18 13 14 17 17 18 18 18 17 16 11 13 12 13 15 17 17 18 17 16 17 17 18 22 22 22 22 23 24 23 24 25 25 25 25 24 24 24 25 24
20 20 18 15 16 17 19 20 21 18 18 17 16 18 13 13 12 10 14 14 17 17 17 17 17 17 20 22 22 22 22 22 22 22 23 24 24 25 25 24 24 25 25 24
19 18 17 18 20 20 20 22 20 21 18 16 16 12 11 11 12 11 13 14 16 16 17 17 17 18 20 22 23 22 21 21 22 23 24 24 24 24 24 24 24 25 25 25
18 19 19 19 20 22 22 24 20 20 19 19 17 11 12 12 15 12 14 14 15 14 17 17 17 19 22 22 23 23 23 23 24 23 24 24 24 24 23 24 24 24 24 24
20 20 20 19 19 20 20 20 19 17 19 21 16 14 15 14 15 14 15 15 15 16 17 16 18 22 23 23 24 24 24 24 25 24 24 24 24 24 23 23 24 24 23 23
20 19 19 18 18 20 20 20 20 19 21 20 18 16 16 17 17 17 16 17 17 18 16 18 21 23 23 24 24 24 24 25 25 25 25 24 24 24 23 23 23 23 23 23
19 19 19 18 19 22 22 24 23 23 22 19 17 19 18 19 18 19 19 17 18 17 17 19 22 23 23 24 24 24 24 24 24 24 24 24 24 24 23 23 23 23 23 23
19 20 21 20 21 23 23 24 25 23 20 20 19 20 19 19 19 19 19 19 20 20 17 21 23 23 23 24 24 24 24 23 24 24 24 24 24 24 23 23 23 23 23 23
Wind_Direction
346 344 343 341 340 339 339 333 320 326 327 308 302 296 297 304 301 300 296 294 291 288 286 279 279 279 281 301 294 278 267 278 273 268 276 267 263 263 261 271 278 276 276 276
345 344 343 343 342 343 337 326 324 332 329 306 303 304 302 307 305 306 301 294 296 293 286 285 281 277 282 285 286 280 279 273 271 274 272 270 266 263 259 268 278 271 270 277
346 344 343 343 343 343 340 330 319 325 328 324 313 310 305 303 306 301 303 298 300 300 287 289 284 284 283 288 287 286 278 268 267 265 272 271 266 264 260 259 264 267 265 274
346 345 343 343 344 345 344 334 323 326 315 316 313 311 307 306 305 308 308 299 304 299 290 290 283 289 287 282 288 284 281 273 268 268 269 271 271 270 264 260 261 263 271 267
348 347 346 345 344 347 348 336 331 329 319 320 317 316 309 305 309 309 304 303 305 301 292 288 286 290 286 278 281 283 283 273 278 266 265 267 267 267 269 268 268 268 269 270
352 350 348 346 347 351 345 346 342 333 323 321 319 318 319 314 319 317 320 314 308 304 301 297 291 287 282 281 279 278 276 277 277 269 271 269 265 266 265 264 270 272 267 275
354 353 350 349 350 350 350 346 341 335 324 324 321 316 316 316 319 314 320 323 319 316 314 307 299 289 281 276 275 271 272 272 273 271 276 262 269 282 276 258 270 276 275 280
356 353 351 348 346 347 347 346 343 339 328 327 323 322 319 320 321 321 320 325 333 327 320 311 304 300 293 282 272 268 263 269 268 262 261 271 274 286 277 270 268 286 283 284
357 355 353 351 350 349 349 346 348 340 333 331 337 335 333 325 323 323 328 327 331 329 324 317 304 301 301 292 286 299 265 263 266 266 264 261 268 285 289 279 264 293 291 288
359 357 357 354 353 353 355 1 8 359 345 343 338 340 338 339 334 327 330 331 335 346 331 318 312 308 312 303 300 287 277 273 263 264 262 268 284 284 286 267 272 292 293 294
1 360 359 356 353 359 5 11 14 5 352 330 324 341 338 339 337 329 330 332 337 336 329 326 326 318 317 315 319 308 301 277 272 274 270 263 303 290 277 283 291 294 296 294
5 4 2 359 357 9 14 16 17 2 357 333 331 346 337 345 347 339 336 335 333 334 330 326 324 320 318 316 304 318 302 302 288 283 274 289 305 305 297 296 294 295 295 294
9 9 8 1 2 20 19 25 21 13 8 351 348 337 341 345 347 349 335 338 338 328 331 329 325 316 316 317 315 312 311 318 301 290 294 290 301 301 309 305 301 300 301 300
15 16 16 13 14 25 31 35 21 21 18 1 355 348 343 348 349 351 348 336 335 330 326 321 323 321 326 323 328 324 318 314 306 303 303 300 300 310 310 311 311 310 311 311
20 24 26 24 25 36 43 39 27 5 15 8 354 349 352 357 356 347 342 337 331 325 321 318 323 327 325 332 331 321 319 321 314 308 310 305 301 306 313 310 311 313 311 310
26 34 36 35 38 43 45 44 47 24 13 25 16 15 12 3 4 355 339 338 335 332 329 332 335 324 326 326 324 318 319 319 330 320 313 313 310 307 313 315 314 313 314 313
33 41 47 43 43 44 45 47 59 75 56 64 52 35 33 351 11 3 350 343 342 338 335 333 327 328 331 330 331 315 316 315 329 323 322 324 324 312 312 314 314 316 319 319
36 43 50 53 56 57 50 50 46 58 72 68 59 66 45 2 8 348 4 346 341 338 345 336 330 326 339 333 321 321 321 319 325 322 329 331 321 322 311 312 315 316 317 318
37 42 49 51 53 51 56 69 67 55 53 60 56 48 52 28 57 37 20 3 341 346 343 333 336 330 332 328 322 323 326 327 319 321 324 327 327 322 315 308 311 308 308 307
32 40 43 43 44 57 64 63 57 57 54 50 51 47 64 57 74 79 44 23 357 333 342 353 343 346 352 337 332 330 326 327 321 321 319 323 319 315 314 309 309 309 309 309
28 28 35 42 43 49 47 45 44 51 53 58 51 40 51 61 76 92 71 52 7 339 337 341 338 338 337 334 334 341 339 327 319 318 324 320 318 315 309 309 315 313 313 313
22 25 29 32 33 37 37 34 39 39 45 45 46 51 65 74 65 80 62 55 26 354 355 340 332 338 337 336 335 334 322 317 316 322 324 322 323 318 315 312 311 314 316 317
20 18 21 22 23 21 25 19 27 25 29 34 32 53 72 75 56 67 54 47 26 38 354 346 347 343 336 332 329 327 327 330 328 328 327 323 324 324 317 314 316 314 314 319
16 12 9 17 19 19 19 18 21 26 21 17 34 52 53 64 58 63 56 48 40 24 5 2 352 339 331 331 329 324 322 325 325 326 325 323 326 323 316 314 316 319 317 317
6 12 7 11 17 16 18 17 18 20 16 19 26 33 40 37 37 47 47 37 32 16 20 6 350 338 337 329 325 324 322 324 325 326 323 322 323 321 316 315 316 315 318 319
11 13 7 10 8 4 5 4 7 6 8 21 28 17 16 13 21 20 11 23 13 18 21 3 350 341 336 328 326 322 324 324 325 325 325 326 326 321 320 319 319 316 316 318
13 9 10 12 7 3 3 2 358 359 6 4 7 360 1 6 2 2 8 5 360 3 23 0 344 338 340 328 324 321 321 324 326 325 328 327 329 331 330 324 318 316 317 317